PITTSFIELD MILLS DAM SUNCOOK RIVER PITTSFIELD, NH: From 06/27/2020 16:00 to 07/12/2020 00:00

Date PRECIPITATION INCREMENT [IN] WATER TEMPERATURE [F] AIR TEMPERATURE [F] POOL ELEVATION [FT] RESERVOIR RELEASE [CFS]
07/11/2020 18:00 -- -- -- -- 60.0
07/11/2020 17:00 0.01 76.8 83.0 474.70 61.8
07/11/2020 16:00 0.08 76.1 79.0 474.70 58.5
07/11/2020 15:00 0.00 76.5 85.0 474.70 58.8
07/11/2020 14:00 0.00 76.3 86.0 474.70 58.8
07/11/2020 13:00 0.00 76.6 83.0 474.69 59.5
07/11/2020 12:00 0.00 77.2 79.0 474.71 59.5
07/11/2020 11:00 0.01 77.4 73.0 474.70 58.3
07/11/2020 10:00 0.00 77.4 73.0 474.69 63.5
07/11/2020 09:00 0.00 77.2 72.0 474.71 58.8
07/11/2020 08:00 0.01 77.0 72.0 474.69 58.0
07/11/2020 07:00 0.00 77.2 71.0 474.69 57.3
07/11/2020 06:00 0.00 76.8 71.0 474.70 56.0
07/11/2020 05:00 0.00 77.2 71.0 474.69 54.5
07/11/2020 04:00 0.03 77.0 71.0 474.68 54.8
07/11/2020 03:00 0.20 77.2 71.0 474.68 52.3
07/11/2020 02:00 0.03 77.4 71.0 474.67 50.0
07/11/2020 01:00 0.03 77.2 71.0 474.67 49.0
07/11/2020 00:00 0.00 77.2 71.0 474.67 49.3
07/10/2020 23:00 0.00 77.9 72.0 474.67 50.5
07/10/2020 22:00 0.00 77.4 72.0 474.68 51.5
07/10/2020 21:00 0.00 77.5 74.0 474.68 53.0
07/10/2020 20:00 0.00 77.5 77.0 474.68 53.5
07/10/2020 19:00 0.00 76.8 80.0 474.68 54.0
07/10/2020 18:00 0.00 77.4 81.0 474.69 55.5
07/10/2020 17:00 0.00 77.0 83.0 474.69 56.3
07/10/2020 16:00 0.00 76.8 84.0 474.70 56.8
07/10/2020 15:00 0.00 76.6 86.0 474.69 58.0
07/10/2020 14:00 0.00 76.5 86.0 474.70 57.8
07/10/2020 13:00 0.00 76.6 84.0 474.70 58.0
07/10/2020 12:00 0.00 76.5 84.0 474.69 59.5
07/10/2020 11:00 0.00 76.5 79.0 474.70 60.0
07/10/2020 10:00 0.00 76.5 75.0 474.70 60.3
07/10/2020 09:00 0.00 76.5 71.0 474.70 61.0
07/10/2020 08:00 0.00 76.5 70.0 474.70 61.0
07/10/2020 07:00 0.00 76.3 69.0 474.70 61.3
07/10/2020 06:00 0.00 76.5 70.0 474.70 61.8
07/10/2020 05:00 0.00 76.5 70.0 474.71 62.0
07/10/2020 04:00 0.00 76.5 71.0 474.71 63.0
07/10/2020 03:00 0.00 76.5 72.0 474.71 64.0
07/10/2020 02:00 0.00 76.5 73.0 474.71 64.3
07/10/2020 01:00 0.00 76.5 74.0 474.71 65.3
07/10/2020 00:00 0.00 76.3 75.0 474.71 65.3
07/09/2020 23:00 0.00 76.6 77.0 474.71 66.0
07/09/2020 22:00 0.00 76.3 80.0 474.71 67.0
07/09/2020 21:00 0.00 76.3 84.0 474.72 67.0
07/09/2020 20:00 0.00 76.3 86.0 474.72 66.8
07/09/2020 19:00 0.00 76.3 88.0 474.72 66.0
07/09/2020 18:00 0.00 75.9 88.0 474.71 67.0
07/09/2020 17:00 0.00 75.9 92.0 474.71 67.0
07/09/2020 16:00 0.00 75.9 88.0 474.72 67.0
07/09/2020 15:00 0.00 75.7 89.0 474.72 66.8
07/09/2020 14:00 0.00 75.4 86.0 474.72 66.3
07/09/2020 13:00 0.00 75.9 85.0 474.71 65.8
07/09/2020 12:00 0.00 75.9 82.0 474.71 64.5
07/09/2020 11:00 0.00 75.7 78.0 474.71 62.0
07/09/2020 10:00 0.00 75.6 75.0 474.71 60.8
07/09/2020 09:00 0.00 75.7 69.0 474.70 59.3
07/09/2020 08:00 0.00 75.7 67.0 474.70 57.5
07/09/2020 07:00 0.00 75.7 67.0 474.69 55.5
07/09/2020 06:00 0.00 75.9 68.0 474.69 53.8
07/09/2020 05:00 0.00 75.7 68.0 474.68 51.3
07/09/2020 04:00 0.00 76.1 68.0 474.67 48.5
07/09/2020 03:00 0.00 76.1 68.0 474.67 46.0
07/09/2020 02:00 0.00 75.9 67.0 474.66 42.8
07/09/2020 01:00 0.00 75.9 69.0 474.65 39.3
07/09/2020 00:00 0.00 75.9 70.0 474.64 36.3
07/08/2020 23:00 0.02 75.9 71.0 474.63 34.0
07/08/2020 22:00 0.00 75.9 74.0 474.62 32.3
07/08/2020 21:00 0.00 75.9 76.0 474.62 31.8
07/08/2020 20:00 0.00 75.9 79.0 474.61 31.3
07/08/2020 19:00 0.00 75.9 75.0 474.61 31.3
07/08/2020 18:00 0.06 75.7 74.0 474.61 30.3
07/08/2020 17:00 0.00 75.7 81.0 474.61 29.5
07/08/2020 16:00 0.00 75.7 84.0 474.60 29.8
07/08/2020 15:00 0.00 75.7 82.0 474.61 31.0
07/08/2020 14:00 0.00 75.7 80.0 474.61 31.3
07/08/2020 13:00 0.00 75.7 78.0 474.62 31.5
07/08/2020 12:00 0.00 75.7 76.0 474.61 32.0
07/08/2020 11:00 0.00 75.7 73.0 474.62 32.0
07/08/2020 10:00 0.00 75.7 70.0 474.62 32.0
07/08/2020 09:00 0.00 75.7 69.0 474.62 32.5
07/08/2020 08:00 0.00 75.7 67.0 474.62 32.5
07/08/2020 07:00 0.00 75.9 67.0 474.62 33.0
07/08/2020 06:00 0.00 75.7 67.0 474.62 33.0
07/08/2020 05:00 0.00 75.9 67.0 474.62 33.3
07/08/2020 04:00 0.00 75.9 68.0 474.62 33.3
07/08/2020 03:00 0.00 75.9 68.0 474.62 33.8
07/08/2020 02:00 0.00 75.9 69.0 474.62 34.3
07/08/2020 01:00 0.00 75.9 69.0 474.63 35.0
07/08/2020 00:00 0.00 75.9 67.0 474.63 35.8
07/07/2020 23:00 0.00 75.9 68.0 474.63 36.0
07/07/2020 22:00 0.00 75.9 71.0 474.63 37.0
07/07/2020 21:00 0.00 75.9 74.0 474.63 37.3
07/07/2020 20:00 0.00 75.9 76.0 474.63 38.3
07/07/2020 19:00 0.00 75.7 81.0 474.64 38.0
07/07/2020 18:00 0.00 75.7 82.0 474.64 40.0
07/07/2020 17:00 0.00 75.6 82.0 474.64 40.0
07/07/2020 16:00 0.00 75.7 80.0 474.64 40.3
07/07/2020 15:00 0.00 75.6 80.0 474.65 40.5
07/07/2020 14:00 0.00 75.9 78.0 474.65 41.5
07/07/2020 13:00 0.00 76.1 77.0 474.65 43.5
07/07/2020 12:00 0.00 75.7 74.0 474.65 43.8
07/07/2020 11:00 0.00 76.1 73.0 474.65 44.3
07/07/2020 10:00 0.00 76.5 68.0 474.65 44.5
07/07/2020 09:00 0.00 76.5 62.0 474.66 45.3
07/07/2020 08:00 0.00 76.5 59.0 474.66 45.0
07/07/2020 07:00 0.00 76.3 56.0 474.66 45.8
07/07/2020 06:00 0.00 76.3 57.0 474.66 45.8
07/07/2020 05:00 0.00 76.3 57.0 474.66 46.0
07/07/2020 04:00 0.00 76.1 58.0 474.66 46.5
07/07/2020 03:00 0.00 76.3 58.0 474.66 47.0
07/07/2020 02:00 0.00 76.3 59.0 474.66 47.8
07/07/2020 01:00 0.00 76.1 61.0 474.67 48.5
07/07/2020 00:00 0.00 76.1 63.0 474.67 49.5
07/06/2020 23:00 0.00 75.9 65.0 474.67 51.5
07/06/2020 22:00 0.00 76.1 68.0 474.68 52.8
07/06/2020 21:00 0.00 75.9 72.0 474.68 53.5
07/06/2020 20:00 0.00 75.9 76.0 474.68 53.5
07/06/2020 19:00 0.00 76.1 76.0 474.68 53.8
07/06/2020 18:00 0.00 75.9 80.0 474.69 54.5
07/06/2020 17:00 0.00 75.9 81.0 474.68 55.3
07/06/2020 16:00 0.00 75.7 80.0 474.69 55.8
07/06/2020 15:00 0.00 75.7 80.0 474.69 56.3
07/06/2020 14:00 0.00 75.9 76.0 474.69 56.8
07/06/2020 13:00 0.00 75.6 77.0 474.69 58.5
07/06/2020 12:00 0.00 75.6 75.0 474.70 59.8
07/06/2020 11:00 0.00 75.6 72.0 474.70 59.8
07/06/2020 10:00 0.00 75.6 70.0 474.70 60.5
07/06/2020 09:00 0.00 75.4 68.0 474.70 61.0
07/06/2020 08:00 0.00 75.6 67.0 474.70 61.3
07/06/2020 07:00 0.00 75.6 66.0 474.70 62.0
07/06/2020 06:00 0.00 75.6 67.0 474.71 62.0
07/06/2020 05:00 0.00 75.4 67.0 474.71 62.0
07/06/2020 04:00 0.00 75.6 67.0 474.71 63.0
07/06/2020 03:00 0.00 75.4 66.0 474.71 64.0
07/06/2020 02:00 0.00 75.4 66.0 474.71 64.5
07/06/2020 01:00 0.00 75.4 66.0 474.71 66.0
07/06/2020 00:00 0.00 75.4 67.0 474.71 66.8
07/05/2020 23:00 0.00 75.4 68.0 474.72 69.0
07/05/2020 22:00 0.00 75.2 69.0 474.72 70.0
07/05/2020 21:00 0.00 75.4 72.0 474.72 70.8
07/05/2020 20:00 0.00 75.2 76.0 474.73 72.8
07/05/2020 19:00 0.00 75.2 82.0 474.73 72.0
07/05/2020 18:00 0.00 75.2 85.0 474.73 73.5
07/05/2020 17:00 0.00 75.2 83.0 474.73 74.8
07/05/2020 16:00 0.00 75.0 84.0 474.74 75.5
07/05/2020 15:00 0.00 74.8 83.0 474.74 78.0
07/05/2020 14:00 0.00 75.0 81.0 474.74 79.0
07/05/2020 13:00 0.00 74.8 78.0 474.75 80.5
07/05/2020 12:00 0.00 74.8 72.0 474.75 82.3
07/05/2020 11:00 0.00 74.7 67.0 474.76 83.5
07/05/2020 10:00 0.00 74.7 65.0 474.76 85.3
07/05/2020 09:00 0.00 74.8 64.0 474.76 86.5
07/05/2020 08:00 0.00 74.8 63.0 474.77 87.5
07/05/2020 07:00 0.00 74.8 63.0 474.77 89.0
07/05/2020 06:00 0.00 74.8 63.0 474.77 89.8
07/05/2020 05:00 0.00 74.8 64.0 474.77 90.5
07/05/2020 04:00 0.00 74.8 63.0 474.78 92.0
07/05/2020 03:00 0.00 74.8 64.0 474.78 93.3
07/05/2020 02:00 0.00 74.7 63.0 474.78 95.5
07/05/2020 01:00 0.00 75.0 64.0 474.79 96.5
07/05/2020 00:00 0.00 74.8 66.0 474.79 99.0
07/04/2020 23:00 0.00 74.7 69.0 474.79 100.3
07/04/2020 22:00 0.00 74.8 72.0 474.80 102.0
07/04/2020 21:00 0.00 75.2 77.0 474.80 103.0
07/04/2020 20:00 0.00 74.5 81.0 474.80 105.0
07/04/2020 19:00 0.00 74.5 84.0 474.81 106.5
07/04/2020 18:00 0.00 74.5 84.0 474.81 107.5
07/04/2020 17:00 0.00 74.5 81.0 474.81 109.8
07/04/2020 16:00 0.00 74.5 82.0 474.82 111.5
07/04/2020 15:00 0.00 74.5 81.0 474.82 112.8
07/04/2020 14:00 0.00 74.5 80.0 474.83 113.5
07/04/2020 13:00 0.00 74.5 76.0 474.83 115.5
07/04/2020 12:00 0.00 74.7 74.0 474.83 117.0
07/04/2020 11:00 0.00 75.2 70.0 474.84 118.5
07/04/2020 10:00 0.00 75.4 68.0 474.84 120.0
07/04/2020 09:00 0.00 75.4 63.0 474.84 121.8
07/04/2020 08:00 0.00 75.6 61.0 474.85 123.0
07/04/2020 07:00 0.00 75.6 60.0 474.85 125.5
07/04/2020 06:00 0.00 75.6 60.0 474.85 126.8
07/04/2020 05:00 0.00 75.7 60.0 474.86 128.0
07/04/2020 04:00 0.00 75.7 61.0 474.86 129.3
07/04/2020 03:00 0.00 75.7 62.0 474.86 130.5
07/04/2020 02:00 0.00 75.9 62.0 474.87 132.3
07/04/2020 01:00 0.00 75.9 63.0 474.87 133.5
07/04/2020 00:00 0.00 76.1 63.0 474.87 135.5
07/03/2020 23:00 0.00 76.1 63.0 474.88 137.3
07/03/2020 22:00 0.00 76.1 65.0 474.88 139.5
07/03/2020 21:00 0.00 76.1 66.0 474.88 141.8
07/03/2020 20:00 0.00 76.1 68.0 474.89 144.5
07/03/2020 19:00 0.00 76.1 70.0 474.89 147.5
07/03/2020 18:00 0.00 75.9 70.0 474.90 151.3
07/03/2020 17:00 0.00 75.9 71.0 474.91 154.8
07/03/2020 16:00 0.00 75.7 69.0 474.91 157.5
07/03/2020 15:00 0.00 75.7 70.0 474.92 160.8
07/03/2020 14:00 0.00 75.7 69.0 474.92 162.5
07/03/2020 13:00 0.00 75.6 69.0 474.93 165.0
07/03/2020 12:00 0.00 75.7 70.0 474.93 166.8
07/03/2020 11:00 0.00 75.6 70.0 474.94 169.0
07/03/2020 10:00 0.00 75.6 72.0 474.94 171.8
07/03/2020 09:00 0.00 75.6 72.0 474.95 174.0
07/03/2020 08:00 0.00 75.7 70.0 474.95 177.0
07/03/2020 07:00 0.00 75.7 69.0 474.95 179.0
07/03/2020 06:00 0.00 75.7 68.0 474.96 181.0
07/03/2020 05:00 0.00 75.7 68.0 474.96 183.5
07/03/2020 04:00 0.00 75.7 69.0 474.97 185.0
07/03/2020 03:00 0.00 75.7 69.0 474.97 188.0
07/03/2020 02:00 0.00 75.6 70.0 474.97 189.0
07/03/2020 01:00 0.00 75.4 72.0 474.98 191.0
07/03/2020 00:00 0.00 75.4 73.0 474.98 192.5
07/02/2020 23:00 0.00 75.4 73.0 474.98 195.5
07/02/2020 22:00 0.00 75.2 75.0 474.99 197.0
07/02/2020 21:00 0.00 75.0 81.0 474.99 200.0
07/02/2020 20:00 0.00 74.7 80.0 475.00 202.5
07/02/2020 19:00 0.00 74.5 90.0 475.00 205.5
07/02/2020 18:00 0.00 74.3 89.0 475.01 207.8
07/02/2020 17:00 0.00 74.1 88.0 475.01 212.0
07/02/2020 16:00 0.00 73.8 87.0 475.02 215.5
07/02/2020 15:00 0.00 73.8 85.0 475.02 219.0
07/02/2020 14:00 0.00 73.6 82.0 475.03 221.5
07/02/2020 13:00 0.00 73.6 80.0 475.04 224.0
07/02/2020 12:00 0.00 73.8 77.0 475.04 227.5
07/02/2020 11:00 0.00 73.8 72.0 475.05 231.0
07/02/2020 10:00 0.00 74.1 66.0 475.05 234.0
07/02/2020 09:00 0.00 73.9 63.0 475.06 237.5
07/02/2020 08:00 0.00 73.9 62.0 475.07 241.0
07/02/2020 07:00 0.00 74.1 62.0 475.07 245.5
07/02/2020 06:00 0.00 74.3 62.0 475.08 248.5
07/02/2020 05:00 0.00 74.1 62.0 475.09 254.0
07/02/2020 04:00 0.00 74.1 62.0 475.10 258.0
07/02/2020 03:00 0.00 74.3 62.0 475.10 260.5
07/02/2020 02:00 0.00 73.9 63.0 475.10 261.0
07/02/2020 01:00 0.00 73.8 64.0 475.10 260.5
07/02/2020 00:00 0.00 73.4 65.0 475.10 253.5
07/01/2020 23:00 0.00 73.6 66.0 475.08 239.0
07/01/2020 22:00 0.01 73.4 67.0 475.05 225.5
07/01/2020 21:00 0.02 73.2 69.0 475.04 224.0
07/01/2020 20:00 0.00 72.7 72.0 475.04 227.0
07/01/2020 19:00 0.01 72.7 70.0 475.05 229.5
07/01/2020 18:00 0.06 72.7 69.0 475.05 232.5
07/01/2020 17:00 0.00 72.5 79.0 475.06 232.0
07/01/2020 16:00 0.00 72.1 78.0 475.05 233.5
07/01/2020 15:00 0.00 72.1 78.0 475.06 235.5
07/01/2020 14:00 0.00 72.0 74.0 475.06 235.5
07/01/2020 13:00 0.00 71.6 71.0 475.06 235.0
07/01/2020 12:00 0.00 71.8 69.0 475.06 234.0
07/01/2020 11:00 0.00 71.4 68.0 475.06 234.0
07/01/2020 10:00 0.00 71.8 65.0 475.06 234.0
07/01/2020 09:00 0.00 71.8 65.0 475.06 233.5
07/01/2020 08:00 0.00 72.1 64.0 475.05 231.5
07/01/2020 07:00 0.00 72.1 64.0 475.05 229.0
07/01/2020 06:00 0.00 71.6 64.0 475.05 226.5
07/01/2020 05:00 0.00 71.8 64.0 475.04 223.5
07/01/2020 04:00 0.00 72.1 64.0 475.04 215.3
07/01/2020 03:00 0.00 72.5 64.0 475.01 200.5
07/01/2020 02:00 0.12 72.5 64.0 475.00 206.3
07/01/2020 01:00 0.88 72.5 65.0 475.00 162.5
07/01/2020 00:00 0.02 72.3 65.0 474.92 157.5
06/30/2020 23:00 0.12 72.3 66.0 474.92 155.3
06/30/2020 22:00 0.07 72.3 66.0 474.91 152.5
06/30/2020 21:00 0.00 72.3 67.0 474.91 150.3
06/30/2020 20:00 0.00 72.1 67.0 474.90 150.0
06/30/2020 19:00 0.00 72.3 69.0 474.90 149.5
06/30/2020 18:00 0.00 72.3 70.0 474.90 149.8
06/30/2020 17:00 0.00 72.3 73.0 474.90 150.0
06/30/2020 16:00 0.00 72.0 71.0 474.90 150.3
06/30/2020 15:00 0.00 71.8 73.0 474.90 149.8
06/30/2020 14:00 0.00 71.6 73.0 474.90 146.5
06/30/2020 13:00 0.01 71.2 69.0 474.90 145.5
06/30/2020 12:00 0.00 71.4 68.0 474.89 144.5
06/30/2020 11:00 0.00 71.2 67.0 474.89 142.0
06/30/2020 10:00 0.01 70.9 66.0 474.89 140.5
06/30/2020 09:00 0.00 70.9 66.0 474.88 138.0
06/30/2020 08:00 0.00 70.9 64.0 474.88 137.0
06/30/2020 07:00 0.00 70.7 63.0 474.88 134.5
06/30/2020 06:00 0.00 70.9 63.0 474.87 132.5
06/30/2020 05:00 0.01 70.9 63.0 474.87 130.3
06/30/2020 04:00 0.00 70.9 63.0 474.86 127.3
06/30/2020 03:00 0.00 70.9 63.0 474.85 123.5
06/30/2020 02:00 0.00 70.9 63.0 474.85 120.8
06/30/2020 01:00 0.00 71.2 62.0 474.84 117.3
06/30/2020 00:00 0.01 70.9 62.0 474.83 113.5
06/29/2020 23:00 0.02 70.7 62.0 474.82 111.5
06/29/2020 22:00 0.03 71.1 63.0 474.82 107.5
06/29/2020 21:00 0.08 70.2 64.0 474.81 104.8
06/29/2020 20:00 0.01 70.5 66.0 474.80 95.8
06/29/2020 19:00 0.00 70.7 66.0 474.77 83.0
06/29/2020 18:00 0.00 70.7 66.0 474.75 77.0
06/29/2020 17:00 0.00 71.2 68.0 474.74 71.8
06/29/2020 16:00 0.00 71.1 68.0 474.73 64.0
06/29/2020 15:00 0.00 71.2 68.0 474.70 55.8
06/29/2020 14:00 0.00 70.9 68.0 474.68 49.5
06/29/2020 13:00 0.00 71.4 69.0 474.67 44.3
06/29/2020 12:00 0.00 71.4 69.0 474.65 38.8
06/29/2020 11:00 0.00 71.2 66.0 474.63 34.5
06/29/2020 10:00 0.00 71.4 66.0 474.62 31.3
06/29/2020 09:00 0.00 71.2 66.0 474.61 27.5
06/29/2020 08:00 0.00 71.4 66.0 474.60 24.5
06/29/2020 07:00 0.00 71.6 65.0 474.59 22.0
06/29/2020 06:00 0.00 72.0 66.0 474.58 20.0
06/29/2020 05:00 0.00 72.0 65.0 474.57 19.0
06/29/2020 04:00 0.00 71.2 65.0 474.57 19.5
06/29/2020 03:00 0.00 71.2 66.0 474.57 22.8
06/29/2020 02:00 0.11 71.1 65.0 474.59 26.3
06/29/2020 01:00 0.19 70.3 66.0 474.60 29.0
06/29/2020 00:00 0.81 72.0 65.0 474.61 20.5
06/28/2020 23:00 0.56 72.1 65.0 474.53 3.8
06/28/2020 22:00 0.00 72.7 67.0 474.49 2.8
06/28/2020 21:00 0.00 72.7 71.0 474.49 3.3
06/28/2020 20:00 0.00 71.2 74.0 474.49 2.8
06/28/2020 19:00 0.00 71.8 77.0 474.49 3.0
06/28/2020 18:00 0.00 71.8 82.0 474.49 3.0
06/28/2020 17:00 0.00 71.2 82.0 474.49 3.0
06/28/2020 16:00 0.00 71.2 82.0 474.49 3.0
06/28/2020 15:00 0.00 71.4 80.0 474.49 3.0
06/28/2020 14:00 0.00 70.5 79.0 474.49 3.0
06/28/2020 13:00 0.00 72.0 78.0 474.49 3.0
06/28/2020 12:00 0.00 70.9 75.0 474.49 3.0
06/28/2020 11:00 0.00 71.1 74.0 474.49 3.0
06/28/2020 10:00 0.00 71.1 71.0 474.49 3.0
06/28/2020 09:00 0.00 71.2 65.0 474.49 3.0
06/28/2020 08:00 0.00 71.2 60.0 474.49 3.0
06/28/2020 07:00 0.00 71.4 58.0 474.49 3.0
06/28/2020 06:00 0.00 71.4 58.0 474.49 3.0
06/28/2020 05:00 0.00 71.4 59.0 474.49 3.0
06/28/2020 04:00 0.00 71.4 60.0 474.49 3.0
06/28/2020 03:00 0.00 72.1 61.0 474.49 3.0
06/28/2020 02:00 0.00 72.1 63.0 474.49 3.0
06/28/2020 01:00 0.00 72.0 66.0 474.49 3.0
06/28/2020 00:00 0.00 71.6 68.0 474.49 3.0
06/27/2020 23:00 0.00 71.2 69.0 474.49 3.0
06/27/2020 22:00 0.00 71.8 69.0 474.49 3.0
06/27/2020 21:00 0.00 71.1 71.0 474.49 3.0
06/27/2020 20:00 0.00 70.7 72.0 474.49 3.0
06/27/2020 19:00 0.00 71.1 73.0 474.49 3.0
06/27/2020 18:00 0.00 71.1 75.0 474.49 3.0
06/27/2020 17:00 -- -- -- -- --
06/27/2020 16:00 -- -- -- -- --